Weather History for KVDI - March, 2013

Change the Weather History Date:

Saturday, March 16, 2013

  Actual Average (KAZE) Record (KAZE)
Temperature  
Mean Temperature 64 °F -  
Max Temperature 78 °F 78 °F 84 °F (2015)
Min Temperature 50 °F 54 °F 49 °F (2013)
Degree Days  
Heating Degree Days 1    
Growing Degree Days 14 (Base 50)    
Moisture  
Dew Point 45 °F    
Average Humidity 50    
Maximum Humidity 82    
Minimum Humidity 26    
Precipitation  
Precipitation 0.00 in - - ()
Sea Level Pressure  
Sea Level Pressure 30.04 in    
Wind  
Wind Speed 10 mph (WSW)    
Max Wind Speed 18 mph    
Max Gust Speed 29 mph    
Visibility 10 miles    
Events      
Averages and records for this station are not official NWS values.
T = Trace of Precipitation, MM = Missing Value Source: NWS Daily Summary

Daily Weather History Graph

Daily Weather History Graph

Search for Another Location

Airport or City:

Trip Planner

Search our weather history database for the weather conditions in past years. The results will help you decide how hot, cold, wet, or windy it might be!

Date:

Astronomy

Mar. 16, 2013 Rise Set
Actual Time 7:38 AM EDT 7:38 PM EDT
Civil Twilight 7:13 AM EDT 8:02 PM EDT
Nautical Twilight 6:45 AM EDT 8:31 PM EDT
Astronomical Twilight 6:16 AM EDT 8:59 PM EDT
Moon 10:24 AM EDT (3/16) No Moon Set
Length of Visible Light 12h 49m
Length of Day
12h 00m
Waxing Crescent, 23% of the Moon is Illuminated
Mar 16
Waxing Crescent
Mar 19
First Quarter
Mar 27
Full
Apr 3
Last Quarter
Apr 10
New

Hourly Weather History & Observations

Time (EDT) Temp. Dew Point Humidity Pressure Visibility Wind Dir Wind Speed Gust Speed Precip Events Conditions
12:15 AM 62.6 °F 42.8 °F 48% 30.09 in 10.0 mi SW 13.8 mph 21.9 mph N/A   Clear
12:35 AM 60.8 °F 42.8 °F 52% 30.08 in 10.0 mi SW 11.5 mph 18.4 mph N/A   Clear
12:55 AM 60.8 °F 42.8 °F 52% 30.08 in 10.0 mi SW 10.4 mph - N/A   Clear
1:15 AM 60.8 °F 42.8 °F 52% 30.08 in 10.0 mi SW 10.4 mph - N/A   Clear
1:55 AM 59.0 °F 42.8 °F 55% 30.07 in 10.0 mi SW 10.4 mph - N/A   Clear
2:15 AM 59.0 °F 42.8 °F 55% 30.07 in 10.0 mi SW 10.4 mph - N/A   Clear
2:35 AM 59.0 °F 42.8 °F 55% 30.07 in 10.0 mi SW 9.2 mph - N/A   Clear
2:55 AM 57.2 °F 42.8 °F 59% 30.07 in 10.0 mi SW 9.2 mph - N/A   Clear
3:15 AM 55.4 °F 42.8 °F 63% 30.06 in 10.0 mi SW 9.2 mph - N/A   Clear
3:35 AM 55.4 °F 42.8 °F 63% 30.07 in 10.0 mi SW 10.4 mph - N/A   Clear
3:55 AM 55.4 °F 42.8 °F 63% 30.06 in 10.0 mi SW 6.9 mph - N/A   Clear
4:15 AM 55.4 °F 42.8 °F 63% 30.06 in 10.0 mi WSW 8.1 mph - N/A   Clear
4:35 AM 55.4 °F 42.8 °F 63% 30.06 in 10.0 mi WSW 8.1 mph - N/A   Clear
4:55 AM 55.4 °F 42.8 °F 63% 30.06 in 10.0 mi WSW 8.1 mph - N/A   Clear
5:15 AM 53.6 °F 42.8 °F 67% 30.06 in 10.0 mi WSW 6.9 mph - N/A   Clear
5:55 AM 53.6 °F 42.8 °F 67% 30.07 in 10.0 mi WSW 6.9 mph - N/A   Clear
6:35 AM 51.8 °F 42.8 °F 71% 30.07 in 10.0 mi SW 4.6 mph - N/A   Clear
6:55 AM 51.8 °F 44.6 °F 76% 30.08 in 10.0 mi WSW 4.6 mph - N/A   Clear
7:15 AM 51.8 °F 44.6 °F 76% 30.08 in 10.0 mi WSW 4.6 mph - N/A   Clear
7:35 AM 50.0 °F 44.6 °F 82% 30.08 in 10.0 mi SW 5.8 mph - N/A   Clear
7:55 AM 50.0 °F 44.6 °F 82% 30.08 in 10.0 mi SW 5.8 mph - N/A   Clear
8:15 AM 51.8 °F 44.6 °F 76% 30.09 in 10.0 mi SW 5.8 mph - N/A   Clear
8:35 AM 53.6 °F 46.4 °F 77% 30.09 in 10.0 mi WSW 4.6 mph - N/A   Clear
8:55 AM 57.2 °F 48.2 °F 72% 30.10 in 10.0 mi West 6.9 mph - N/A   Clear
9:15 AM 59.0 °F 48.2 °F 67% 30.10 in 10.0 mi West 12.7 mph 17.3 mph N/A   Clear
9:35 AM 60.8 °F 50.0 °F 68% 30.10 in 10.0 mi West 9.2 mph 18.4 mph N/A   Clear
9:55 AM 62.6 °F 50.0 °F 63% 30.10 in 10.0 mi WSW 9.2 mph - N/A   Clear
10:15 AM 64.4 °F 48.2 °F 56% 30.09 in 10.0 mi West 10.4 mph 17.3 mph N/A   Clear
10:35 AM 64.4 °F 46.4 °F 52% 30.09 in 10.0 mi West 10.4 mph 18.4 mph N/A   Clear
10:55 AM 68.0 °F 46.4 °F 46% 30.09 in 10.0 mi WSW 12.7 mph 18.4 mph N/A   Clear
11:15 AM 69.8 °F 46.4 °F 43% 30.09 in 10.0 mi West 9.2 mph - N/A   Clear
11:35 AM 69.8 °F 44.6 °F 40% 30.08 in 10.0 mi West 13.8 mph 19.6 mph N/A   Clear
11:55 AM 71.6 °F 44.6 °F 38% 30.07 in 10.0 mi West 11.5 mph - N/A   Clear
12:15 PM 71.6 °F 42.8 °F 35% 30.07 in 10.0 mi WSW 10.4 mph 20.7 mph N/A   Clear
12:35 PM 73.4 °F 44.6 °F 36% 30.06 in 10.0 mi WSW 12.7 mph 19.6 mph N/A   Clear
12:55 PM 73.4 °F 42.8 °F 33% 30.05 in 10.0 mi West 10.4 mph 20.7 mph N/A   Clear
1:15 PM 75.2 °F 42.8 °F 31% 30.04 in 10.0 mi WSW 15.0 mph 21.9 mph N/A   Clear
1:55 PM 77.0 °F 42.8 °F 29% 30.02 in 10.0 mi West 13.8 mph 24.2 mph N/A   Clear
2:15 PM 77.0 °F 44.6 °F 32% 30.01 in 10.0 mi West 12.7 mph 19.6 mph N/A   Clear
2:35 PM 77.0 °F 44.6 °F 32% 30.00 in 10.0 mi WSW 11.5 mph 19.6 mph N/A   Clear
2:55 PM 78.8 °F 44.6 °F 30% 29.99 in 10.0 mi WSW 18.4 mph 25.3 mph N/A   Clear
3:15 PM 78.8 °F 42.8 °F 28% 29.98 in 10.0 mi SW 16.1 mph 26.5 mph N/A   Clear
3:35 PM 78.8 °F 42.8 °F 28% 29.97 in 10.0 mi West 8.1 mph 20.7 mph N/A   Clear
3:55 PM 78.8 °F 42.8 °F 28% 29.97 in 10.0 mi WSW 16.1 mph 28.8 mph N/A   Clear
4:15 PM 78.8 °F 42.8 °F 28% 29.96 in 10.0 mi SW 17.3 mph 20.7 mph N/A   Clear
4:55 PM 78.8 °F 41.0 °F 26% 29.96 in 10.0 mi SW 15.0 mph 21.9 mph N/A   Clear
5:15 PM 78.8 °F 41.0 °F 26% 29.95 in 10.0 mi WSW 15.0 mph 25.3 mph N/A   Clear
5:35 PM 78.8 °F 42.8 °F 28% 29.95 in 10.0 mi WSW 18.4 mph 23.0 mph N/A   Clear
5:55 PM 78.8 °F 42.8 °F 28% 29.95 in 10.0 mi WSW 16.1 mph 23.0 mph N/A   Clear
6:15 PM 78.8 °F 42.8 °F 28% 29.95 in 10.0 mi WSW 12.7 mph 17.3 mph N/A   Clear
6:35 PM 77.0 °F 42.8 °F 29% 29.96 in 10.0 mi WSW 10.4 mph 18.4 mph N/A   Clear
6:55 PM 77.0 °F 42.8 °F 29% 29.96 in 10.0 mi WSW 11.5 mph 17.3 mph N/A   Clear
7:15 PM 73.4 °F 44.6 °F 36% 29.97 in 10.0 mi WSW 9.2 mph - N/A   Clear
7:55 PM 71.6 °F 44.6 °F 38% 29.97 in 10.0 mi WSW 8.1 mph - N/A   Clear
8:15 PM 69.8 °F 44.6 °F 40% 29.98 in 10.0 mi WSW 5.8 mph - N/A   Clear
8:35 PM 69.8 °F 44.6 °F 40% 29.98 in 10.0 mi SW 4.6 mph - N/A   Clear
8:55 PM 68.0 °F 46.4 °F 46% 29.99 in 10.0 mi SW 4.6 mph - N/A   Clear
9:15 PM 68.0 °F 46.4 °F 46% 29.99 in 10.0 mi SW 4.6 mph - N/A   Clear
9:35 PM 68.0 °F 46.4 °F 46% 29.99 in 10.0 mi SW 4.6 mph - N/A   Clear
9:55 PM 64.4 °F 46.4 °F 52% 30.00 in 10.0 mi SW 5.8 mph - N/A   Clear
10:15 PM 64.4 °F 46.4 °F 52% 30.00 in 10.0 mi SW 4.6 mph - N/A   Clear
10:35 PM 64.4 °F 46.4 °F 52% 30.01 in 10.0 mi SW 5.8 mph - N/A   Clear
10:55 PM 62.6 °F 50.0 °F 63% 30.02 in 10.0 mi SW 8.1 mph - N/A   Clear
11:15 PM 64.4 °F 50.0 °F 59% 30.02 in 10.0 mi WSW 9.2 mph - N/A   Clear
11:35 PM 64.4 °F 51.8 °F 64% 30.02 in 10.0 mi SW 10.4 mph - N/A   Clear
11:55 PM 64.4 °F 53.6 °F 68% 30.03 in 10.0 mi SW 9.2 mph - N/A   Clear